Regional Weather Roundup
Issued by NWS

Home | Current Version | Previous Version | Graphics & Text | Print | Product List | Glossary On
Versions: 1 2 3 4 5 6 7 8 9 10 11 12 13 14 15 16 17 18 19 20 21 22 23 24 25 26 27 28 29 30 31 32 33 34 35 36 37 38 39 40 41 42 43 44 45 46 47 48 49 50
800
ASUS43 KLOT 050712
RWRIL

ILLINOIS REGIONAL WEATHER ROUNDUP
NATIONAL WEATHER SERVICE CHICAGO/ROMEOVILLE IL
100 AM CST MON DEC 05 2016

NOTE: "FAIR" INDICATES FEW OR NO CLOUDS BELOW 12,000 FEET WITH NO
SIGNIFICANT WEATHER AND/OR OBSTRUCTIONS TO VISIBILITY.

* THESE STATIONS ARE NOT UNDER NWS QUALITY CONTROL. THEY ALSO MAY NOT
  REPORT WEATHER SUCH AS PRECIPITATION OR FOG.

ILZ001-002-007-009-015-016-024-050800-
NORTHWEST ILLINOIS

CITY           SKY/WX    TMP DP  RH WIND       PRES   REMARKS
MOLINE         CLOUDY    35  31  85 SW8       29.97S WCI  29
STERLING*      CLOUDY    34  32  92 W14       29.97R WCI  25
SAVANNA*       CLOUDY    33  31  93 W8        29.96R FOG     WCI  26
$$

ILZ003-004-008-010-011-017-018-050800-
NORTH CENTRAL ILLINOIS

CITY           SKY/WX    TMP DP  RH WIND       PRES   REMARKS
ROCKFORD       CLOUDY    33  30  88 W9        29.96R WCI  25
FREEPORT*      CLOUDY    32  30  93 W5        29.95F WCI  27
ROCHELLE*      CLOUDY    32  31  96 W14       29.95S WCI  22
DE KALB*       CLOUDY    32  31  95 W13       29.95R WCI  23
$$

ILZ005-006-012>014-019>023-050800-
NORTHEAST ILLINOIS

CITY           SKY/WX    TMP DP  RH WIND       PRES   REMARKS
CHICAGO-OHARE  CLOUDY    33  30  88 W16       29.95R WCI  23
CHICAGO-MIDWAY CLOUDY    34  30  85 W17G25    29.95R WCI  23
AURORA         CLOUDY    34  31  88 W17       29.96R WCI  23
LANSING*       CLOUDY    32  32 100 W8        29.96S WCI  25
JOLIET*        CLOUDY    34  33  96 W5        29.97S WCI  30
WAUKEGAN       CLOUDY    33  30  88 W9        29.91R WCI  25
DUPAGE AIRPORT CLOUDY    33  29  85 W14       29.94R WCI  23
KANKAKEE*      CLOUDY    32  32  99 CALM      29.99S
WHEELING       CLOUDY    33  30  88 W9        29.95R WCI  25
MORRIS*        CLOUDY    33  31  92 W5        29.96F WCI  29
ROMEOVILLE*    CLOUDY    32  32 100 W6        29.96S WCI  27
NORTHERLY ISL    N/A     34  31  89 SW15        N/A  WCI  24
$$

LMZ740>746-050800-
SOUTHERN LAKE MICHIGAN

STATION/POSITION SKY/WX   TEMP    WIND        PRES    VSBY  WAVE
                          AIR SEA DIR/SP/G                  HT/PER
                          (F)     (DEG/KT/KT) (MB)    (MI)  (FT/S)
HARRISON CRIB              35     270/ 20/ 23   N/A
BURNHAM HARBOR             34     250/ 12/ 17   N/A
CALUMET HARBOR             33     240/ 10/ 17 1013.9R
BURNS HARBOR               35     250/ 17/ 23 1014.9R
$$

ILZ025>027-034>036-040-047-049-050-058-095>099-050800-
WEST-CENTRAL ILLINOIS

CITY           SKY/WX    TMP DP  RH WIND       PRES   REMARKS
QUINCY         PTCLDY    31  31 100 SW3       30.00S FOG
GALESBURG*     CLOUDY    33  32  98 W7        29.98F WCI  26
MACOMB*        CLOUDY    34  34  97 W7        30.02S WCI  28
JACKSONVILLE*  CLOUDY    33  32  95 CALM      30.03R
PITTSFIELD*    CLEAR     32  32 100 CALM      30.02F FOG
$$

ILZ028>032-037-038-041>044-048-051>054-059>061-050800-
CENTRAL ILLINOIS

CITY           SKY/WX    TMP DP  RH WIND       PRES   REMARKS
PONTIAC        CLOUDY    34  34 100 W9        30.00R WCI  26
BLOOMINGTON    CLOUDY    32  32 100 W9        30.01  WCI  24
DECATUR        CLOUDY    34  31  88 W10       30.04R WCI  26
PEORIA         CLOUDY    33  32  96 W7        30.01R WCI  27
LACON*         CLOUDY    33  32  96 W7        30.00R WCI  27
LINCOLN*       CLOUDY    34  33  95 W5        30.03R WCI  30
SPRINGFIELD    CLOUDY    35  32  88 W7        30.04R WCI  29
TAYLORVILLE    CLOUDY    33  32  95 W5        30.04S WCI  29
$$

ILZ033-039-045-046-055>057-062-063-050800-
EAST-CENTRAL ILLINOIS

CITY           SKY/WX    TMP DP  RH WIND       PRES   REMARKS
CHAMPAIGN      CLOUDY    34  31  88 W13       30.02R WCI  25
RANTOUL*       CLOUDY    35  33  93 W9        30.01R WCI  27
MATTOON        CLOUDY    34  31  88 W10       30.02S WCI  26
PARIS*         CLOUDY    35  32  90 W10       30.04R WCI  27
$$

ILZ079-100>102-050800-
SOUTHWEST ILLINOIS

CITY           SKY/WX    TMP DP  RH WIND       PRES   REMARKS
ALTON          CLEAR     32  31  97 CALM      30.05R
BELLEVILLE     MOCLDY    36  36 100 E2        30.05S
CAHOKIA*       MOCLDY    35  32  88 S5        30.05S WCI  31
SPARTA*        CLOUDY    37  32  81 CALM      30.08R
$$

ILZ064>066-069>071-074>076-080>082-084>086-088>090-092>094-050800-
SOUTH-CENTRAL ILLINOIS

CITY           SKY/WX    TMP DP  RH WIND       PRES   REMARKS
CARBONDALE     CLOUDY    40  36  86 NW6       30.08R
CAIRO*         CLOUDY    40  39  96 CALM      30.07S
EFFINGHAM*     CLOUDY    35  34  98 W5        30.07R WCI  31
MARION         CLOUDY    41  37  87 NW3       30.08R
CENTRALIA*     CLOUDY    37  35  90 NW7       30.06R WCI  32
SALEM*         CLOUDY    37  34  87 NW3       30.06S
METROPOLIS*    CLOUDY    40  38  93 CALM      30.08S
$$

ILZ067-068-072-073-078-083-087-091-050800-
SOUTHEAST ILLINOIS

CITY           SKY/WX    TMP DP  RH WIND       PRES   REMARKS
LAWRENCEVILLE  CLOUDY    37  31  78 NW9       30.06R WCI  30
FLORA*         CLOUDY    37  33  87 NW7       30.06R WCI  31
FAIRFIELD*     CLOUDY    37  33  85 CALM      30.06R
HARRISBURG*    CLOUDY    40  36  86 NW3       30.07S
ROBINSON*      CLOUDY    36  32  88 W6        30.06S WCI  31
CARMI*         CLOUDY    38  35  89 N5        30.06S WCI  34
$$

ABBREVIATIONS USED IN REMARKS
   TC - TEMPERATURE IN CELSIUS
  WCI - WIND CHILL INDEX
   HX - HEAT INDEX
  VSB - VISIBILITY
$$





USA.gov is the U.S. government's official web portal to all federal, state and local government web resources and services.